Fernandina Beach, FL

10:08 PM EST on December 10, 2019 (GMT -0500)
Fernandina Beach

Weather History for KFHB - October, 2019

Change the Weather History Date:

Friday, October 11, 2019

  Actual Average (KNRB) Record (KNRB)
Temperature  
Mean Temperature 76 °F -  
Max Temperature 80 °F 78 °F 91 °F (2018)
Min Temperature 71 °F 67 °F -4 °F (2016)
Cooling Degree Days 10    
Growing Degree Days 26 (Base 50)    
Moisture  
Dew Point 64 °F    
Average Humidity 68    
Maximum Humidity 76    
Minimum Humidity 57    
Precipitation  
Precipitation 0.00 in - - ()
Sea Level Pressure  
Sea Level Pressure 30.06 in    
Wind  
Wind Speed 12 mph (NE)    
Max Wind Speed 20 mph    
Max Gust Speed 22 mph    
Visibility 10 miles    
Events      
Averages and records for this station are not official NWS values.
T = Trace of Precipitation, MM = Missing Value Source: NWS Daily Summary

Daily Weather History Graph

Daily Weather History Graph

Search for Another Location

Airport or City:

Astronomy

Oct. 11, 2019 Rise Set
Actual Time 7:25 AM EDT 6:59 PM EDT
Civil Twilight 7:01 AM EDT 7:23 PM EDT
Nautical Twilight 6:33 AM EDT 7:51 PM EDT
Astronomical Twilight 6:05 AM EDT 8:19 PM EDT
Moon 6:15 PM EDT 5:19 AM EDT
Length of Visible Light 12h 22m
Length of Day
11h 33m
Waxing Gibbous, 96% of the Moon is Illuminated
Oct 11
Waxing Gibbous
Oct 13
Full
Oct 21
Last Quarter
Oct 27
New
Nov 4
First Quarter

Hourly Weather History & Observations

Time (EDT) Temp. Heat Index Dew Point Humidity Pressure Visibility Wind Dir Wind Speed Gust Speed Precip Events Conditions
12:15 AM 73.2 °F - 64.2 °F 73% 30.08 in 10.0 mi NE 17.3 mph - N/A   Scattered Clouds
12:35 AM 72.9 °F - 63.9 °F 73% 30.07 in 10.0 mi ENE 11.5 mph - N/A   Scattered Clouds
12:55 AM 72.9 °F - 63.1 °F 71% 30.07 in 10.0 mi NE 15.0 mph 19.6 mph N/A   Mostly Cloudy
1:15 AM 72.7 °F - 62.8 °F 71% 30.07 in 10.0 mi NE 12.7 mph - N/A   Scattered Clouds
1:35 AM 72.5 °F - 62.4 °F 71% 30.07 in 10.0 mi NE 10.4 mph - N/A   Scattered Clouds
1:55 AM 72.3 °F - 62.1 °F 70% 30.07 in 10.0 mi ENE 11.5 mph - N/A   Scattered Clouds
2:15 AM 72.3 °F - 61.9 °F 70% 30.07 in 10.0 mi ENE 13.8 mph - N/A   Scattered Clouds
2:35 AM 72.7 °F - 62.4 °F 70% 30.06 in 10.0 mi ENE 9.2 mph - N/A   Mostly Cloudy
2:55 AM 72.3 °F - 61.9 °F 70% 30.05 in 10.0 mi NE 11.5 mph - N/A   Mostly Cloudy
3:15 AM 72.3 °F - 62.2 °F 70% 30.05 in 10.0 mi ENE 12.7 mph - N/A   Scattered Clouds
3:35 AM 72.0 °F - 61.7 °F 70% 30.04 in 10.0 mi ENE 10.4 mph - N/A   Scattered Clouds
3:55 AM 71.8 °F - 61.7 °F 70% 30.04 in 10.0 mi NE 10.4 mph - N/A   Scattered Clouds
4:15 AM 71.8 °F - 61.3 °F 70% 30.04 in 10.0 mi ENE 10.4 mph - N/A   Scattered Clouds
4:35 AM 72.1 °F - 61.9 °F 70% 30.03 in 10.0 mi NE 9.2 mph - N/A   Scattered Clouds
4:55 AM 72.0 °F - 61.5 °F 70% 30.04 in 10.0 mi NE 11.5 mph - N/A   Clear
5:15 AM 72.0 °F - 61.7 °F 70% 30.04 in 10.0 mi NE 11.5 mph - N/A   Clear
5:35 AM 72.0 °F - 63.3 °F 74% 30.04 in 10.0 mi ENE 10.4 mph - N/A   Clear
5:55 AM 71.8 °F - 62.2 °F 72% 30.04 in 10.0 mi NE 11.5 mph - N/A   Clear
6:15 AM 71.6 °F - 61.9 °F 71% 30.04 in 10.0 mi NE 12.7 mph - N/A   Clear
6:35 AM 72.0 °F - 61.3 °F 69% 30.05 in 10.0 mi NE 10.4 mph - N/A   Clear
6:55 AM 71.4 °F - 62.2 °F 73% 30.06 in 10.0 mi NE 8.1 mph - N/A   Clear
7:15 AM 71.2 °F - 61.5 °F 71% 30.06 in 10.0 mi NE 11.5 mph - N/A   Clear
7:35 AM 71.1 °F - 61.9 °F 73% 30.06 in 10.0 mi NE 8.1 mph - N/A   Clear
7:55 AM 71.8 °F - 61.7 °F 70% 30.06 in 10.0 mi NE 5.8 mph - N/A   Clear
8:15 AM 73.0 °F - 62.2 °F 69% 30.07 in 10.0 mi NE 8.1 mph - N/A   Clear
8:35 AM 74.8 °F - 62.8 °F 66% 30.07 in 10.0 mi NE 6.9 mph - N/A   Scattered Clouds
8:55 AM 76.1 °F - 63.7 °F 65% 30.08 in 10.0 mi NE 10.4 mph - N/A   Scattered Clouds
9:15 AM 76.1 °F - 63.1 °F 64% 30.09 in 10.0 mi NE 9.2 mph - N/A   Scattered Clouds
9:35 AM 77.0 °F - 64.8 °F 66% 30.10 in 10.0 mi NE 9.2 mph - N/A   Mostly Cloudy
9:55 AM 78.1 °F - 64.6 °F 63% 30.09 in 10.0 mi NE 10.4 mph - N/A   Mostly Cloudy
10:35 AM 78.1 °F - 65.1 °F 64% 30.10 in 10.0 mi NE 13.8 mph - N/A   Scattered Clouds
10:55 AM 75.6 °F - 64.9 °F 69% 30.10 in 10.0 mi NNE 10.4 mph - N/A   Scattered Clouds
11:15 AM 75.7 °F - 64.8 °F 69% 30.10 in 10.0 mi NE 9.2 mph - N/A   Mostly Cloudy
11:35 AM 79.3 °F - 65.5 °F 62% 30.10 in 10.0 mi NE 12.7 mph - N/A   Mostly Cloudy
11:55 AM 76.3 °F - 64.9 °F 68% 30.10 in 10.0 mi NE 10.4 mph - N/A   Overcast
12:15 PM 79.7 °F - 65.8 °F 62% 30.10 in 10.0 mi NE 12.7 mph - N/A   Overcast
12:35 PM 79.3 °F - 65.3 °F 62% 30.09 in 10.0 mi NE 16.1 mph 19.6 mph N/A   Scattered Clouds
12:55 PM 79.7 °F - 65.7 °F 62% 30.08 in 10.0 mi ENE 19.6 mph - N/A   Clear
1:15 PM 79.9 °F - 65.3 °F 61% 30.08 in 10.0 mi ENE 13.8 mph - N/A   Clear
1:35 PM 79.9 °F - 65.3 °F 61% 30.07 in 10.0 mi NE 16.1 mph - N/A   Clear
1:55 PM 80.1 °F 81.8 °F 64.4 °F 59% 30.06 in 10.0 mi NE 15.0 mph 21.9 mph N/A   Clear
2:15 PM 80.1 °F 81.7 °F 64.2 °F 58% 30.06 in 10.0 mi NE 13.8 mph - N/A   Clear
2:35 PM 80.2 °F 81.8 °F 63.9 °F 57% 30.05 in 10.0 mi ENE 15.0 mph - N/A   Clear
2:55 PM 80.1 °F 81.6 °F 63.5 °F 57% 30.05 in 10.0 mi ENE 13.8 mph 18.4 mph N/A   Clear
3:15 PM 79.7 °F - 63.5 °F 58% 30.05 in 10.0 mi ENE 16.1 mph 19.6 mph N/A   Clear
3:35 PM 79.7 °F - 64.0 °F 59% 30.04 in 10.0 mi ENE 13.8 mph - N/A   Clear
3:55 PM 79.5 °F - 65.5 °F 62% 30.04 in 10.0 mi NE 13.8 mph 17.3 mph N/A   Clear
4:15 PM 78.8 °F - 65.5 °F 64% 30.04 in 10.0 mi NE 15.0 mph - N/A   Clear
4:35 PM 78.3 °F - 65.7 °F 65% 30.04 in 10.0 mi ENE 13.8 mph - N/A   Clear
4:55 PM 78.3 °F - 65.5 °F 65% 30.03 in 10.0 mi NNE 12.7 mph - N/A   Clear
5:15 PM 77.9 °F - 65.5 °F 65% 30.03 in 10.0 mi NE 11.5 mph - N/A   Clear
5:35 PM 77.7 °F - 66.6 °F 68% 30.03 in 10.0 mi ENE 12.7 mph - N/A   Scattered Clouds
5:55 PM 77.2 °F - 66.4 °F 69% 30.03 in 10.0 mi NE 10.4 mph - N/A   Scattered Clouds
6:15 PM 76.3 °F - 65.5 °F 69% 30.03 in 10.0 mi NE 11.5 mph - N/A   Clear
6:35 PM 75.7 °F - 65.8 °F 71% 30.03 in 10.0 mi NE 8.1 mph - N/A   Scattered Clouds
6:55 PM 75.2 °F - 65.3 °F 71% 30.03 in 10.0 mi NE 8.1 mph - N/A   Mostly Cloudy
7:15 PM 75.0 °F - 66.9 °F 76% 30.03 in 10.0 mi ENE 10.4 mph - N/A   Overcast
7:35 PM 75.2 °F - 66.6 °F 74% 30.03 in 10.0 mi ENE 10.4 mph - N/A   Overcast
7:55 PM 75.6 °F - 66.6 °F 74% 30.04 in 10.0 mi NE 15.0 mph - N/A   Overcast
8:15 PM 75.7 °F - 66.7 °F 74% 30.04 in 10.0 mi ENE 15.0 mph - N/A   Overcast
8:30 PM 75.6 °F - 66.2 °F 73% 30.05 in 10.0 mi ENE 12.7 mph - N/A   Overcast
8:55 PM 75.2 °F - 66.4 °F 74% 30.05 in 10.0 mi ENE 12.7 mph - N/A   Overcast
9:15 PM 74.8 °F - 66.0 °F 74% 30.06 in 10.0 mi ENE 9.2 mph - N/A   Overcast
9:35 PM 75.0 °F - 66.2 °F 74% 30.07 in 10.0 mi ENE 11.5 mph - N/A   Overcast
9:55 PM 75.4 °F - 66.0 °F 73% 30.07 in 10.0 mi ENE 12.7 mph - N/A   Overcast
10:15 PM 75.4 °F - 66.0 °F 73% 30.07 in 10.0 mi ENE 11.5 mph - N/A   Overcast
10:35 PM 75.4 °F - 65.7 °F 72% 30.07 in 10.0 mi NE 10.4 mph - N/A   Overcast
10:55 PM 75.4 °F - 65.8 °F 72% 30.07 in 10.0 mi ENE 11.5 mph - N/A   Overcast
11:15 PM 75.2 °F - 65.5 °F 72% 30.07 in 10.0 mi ENE 9.2 mph - N/A   Overcast
11:35 PM 74.8 °F - 65.1 °F 72% 30.07 in 10.0 mi ENE 10.4 mph - N/A   Overcast